Location: Orange
(33.2833°S, 149.1000°E)
Time: 11:41:32
(UTC+11:00)

N. Korean satellite - Pass Details

Date: 12 December 2021
Orbit: 447 x 491 km, 97.3° (Epoch: 23 January)

Event Time Altitude Azimuth Distance (km) Brightness Sun altitude
Rises 04:31:28 0° 58° (ENE) 2,509 10.4 -14.0°
Reaches altitude 10° 04:34:47 10° 93° (E) 1,657 10.1 -13.4°
Maximum altitude 04:35:56 11° 112° (ESE) 1,585 10.4 -13.3°
Drops below altitude 10° 04:37:06 10° 131° (SE) 1,675 10.8 -13.1°
Sets 04:40:30 0° 165° (SSE) 2,581 11.2 -12.5°
